KB1DML Cambridge MA US current weather conditions

sailwx.info

Wind from 225 at 1 knots gusting 5

Air temperature 28.9° C
Dewpoint 23.3° C

Last reported at 2020-Aug-11 13:05 UTC.
Time now 2020-Aug-11 13:48 UTC

Location: N 42°22' W 071°06'.
View on Google Maps.

See reports from other nearby stations

  
Tides and Currents Weather Stations Pressure Air Temp Water Temp Dewpoint Dewpoint Depression Visibility Wind Speed Wind Dir Waves Ship Positions
date/time (UTC)wind fromknots sea level pressurealtimeterstation pressurevisibilityair tempwater tempwave heightnotes
2020-Aug-11 13:05 225 1 gusting 5 28.9
2020-Aug-11 13:00 225 1 gusting 6 28.9
2020-Aug-11 12:55 180 2 gusting 6 28.3
2020-Aug-11 12:50 225 1 gusting 6 27.8
2020-Aug-11 12:45 225 1 gusting 6 27.2
2020-Aug-11 12:40 225 1 gusting 5 27.2
2020-Aug-11 12:35 202 1 gusting 4 27.2
2020-Aug-11 12:30 225 0 gusting 4 26.7
2020-Aug-11 12:25 225 0 gusting 4 26.7
2020-Aug-11 12:20 225 1 gusting 4 26.7
2020-Aug-11 12:15 225 0 gusting 4 26.1
2020-Aug-11 12:10 225 1 gusting 5 26.1
2020-Aug-11 12:05 225 1 gusting 5 26.1
2020-Aug-11 12:00 225 1 gusting 5 25.6
2020-Aug-11 11:55 225 1 gusting 5 25.6
2020-Aug-11 11:50 225 1 gusting 4 25.6
2020-Aug-11 11:45 157 1 gusting 5 25.0
2020-Aug-11 11:40 225 1 gusting 3 25.0
2020-Aug-11 11:35 135 1 gusting 4 25.0
2020-Aug-11 11:30 225 0 gusting 3 25.0
2020-Aug-11 11:25 180 1 gusting 5 25.0
2020-Aug-11 11:20 225 1 gusting 6 24.4
2020-Aug-11 11:15 202 1 gusting 4 24.4
2020-Aug-11 11:10 202 1 gusting 5 24.4
2020-Aug-11 11:05 225 0 gusting 3 24.4
2020-Aug-11 11:00 045 0 gusting 1 24.4
2020-Aug-11 10:55 202 0 gusting 2 24.4
2020-Aug-11 10:50 225 0 gusting 4 23.9
2020-Aug-11 10:45 135 0 gusting 5 23.9
2020-Aug-11 10:40 202 0 gusting 3 23.9
2020-Aug-11 10:35 157 0 gusting 4 23.9
2020-Aug-11 10:30 225 0 gusting 5 23.9
2020-Aug-11 10:25 225 0 gusting 4 23.9
2020-Aug-11 10:20 157 0 gusting 3 23.9
2020-Aug-11 10:15 202 0 gusting 4 24.4
2020-Aug-11 10:10 202 0 gusting 3 24.4
2020-Aug-11 10:05 202 0 gusting 3 24.4
2020-Aug-11 10:00 045 0 gusting 2 24.4
2020-Aug-11 09:55 225 0 gusting 1 24.4
2020-Aug-11 09:50 157 0 gusting 5 24.4
2020-Aug-11 09:45 225 0 gusting 1 24.4
2020-Aug-11 09:40 247 0 gusting 3 24.4
2020-Aug-11 09:35 225 0 gusting 3 24.4
2020-Aug-11 09:30 225 0 gusting 5 24.4
2020-Aug-11 09:25 180 0 gusting 4 24.4
2020-Aug-11 09:20 202 0 gusting 3 24.4
2020-Aug-11 09:15 225 0 gusting 3 24.4
2020-Aug-11 09:10 225 0 gusting 4 24.4
2020-Aug-11 09:05 225 0 gusting 3 24.4
2020-Aug-11 09:00 180 0 gusting 3 24.4
2020-Aug-11 08:55 157 1 gusting 5 24.4
2020-Aug-11 08:50 225 0 gusting 2 24.4
2020-Aug-11 08:45 225 0 gusting 3 24.4
2020-Aug-11 08:40 225 0 gusting 3 25.0
2020-Aug-11 08:35 225 0 gusting 5 25.0
2020-Aug-11 08:30 202 1 gusting 4 25.0
2020-Aug-11 08:25 225 0 gusting 1 25.0
2020-Aug-11 08:20 202 0 gusting 3 25.0
2020-Aug-11 08:15 225 0 gusting 3 25.0
2020-Aug-11 08:10 225 0 gusting 1 25.0
2020-Aug-11 08:05 135 0 gusting 3 25.0
2020-Aug-11 08:00 135 0 gusting 3 25.0
2020-Aug-11 07:55 180 0 gusting 3 25.0
2020-Aug-11 07:50 202 0 gusting 3 25.6
2020-Aug-11 07:45 157 0 gusting 3 25.6
2020-Aug-11 07:40 157 0 gusting 4 25.6
2020-Aug-11 07:35 180 0 gusting 4 25.6
2020-Aug-11 07:30 135 0 gusting 3 25.6
2020-Aug-11 07:25 180 2 gusting 5 25.6
2020-Aug-11 07:20 135 0 gusting 3 25.6
2020-Aug-11 07:15 180 0 gusting 4 25.6
2020-Aug-11 07:10 180 0 gusting 2 26.1
2020-Aug-11 07:05 225 0 gusting 5 26.1
2020-Aug-11 07:00 202 0 gusting 3 26.1
2020-Aug-11 06:55 157 1 gusting 5 26.1
2020-Aug-11 06:50 202 0 gusting 3 26.1
2020-Aug-11 06:45 180 0 gusting 1 26.1
2020-Aug-11 06:40 202 0 gusting 1 26.1
2020-Aug-11 06:35 202 0 gusting 1 26.1
2020-Aug-11 06:30 225 0 gusting 2 26.7
2020-Aug-11 06:25 225 0 gusting 3 26.7
2020-Aug-11 06:20 202 0 gusting 4 26.7
2020-Aug-11 06:15 202 0 gusting 2 26.7
2020-Aug-11 06:10 225 0 gusting 2 26.7
2020-Aug-11 06:05 225 0 gusting 3 26.7
2020-Aug-11 06:00 225 1 gusting 6 26.7
2020-Aug-11 05:55 225 0 gusting 4 26.7
2020-Aug-11 05:50 202 1 gusting 4 26.7
2020-Aug-11 05:45 225 1 gusting 5 27.2
2020-Aug-11 05:40 202 1 gusting 5 27.2
2020-Aug-11 05:35 225 0 gusting 5 27.2
2020-Aug-11 05:30 202 0 gusting 4 27.2
2020-Aug-11 05:25 202 0 gusting 3 27.2
2020-Aug-11 05:20 225 0 gusting 4 27.2
2020-Aug-11 05:15 225 1 gusting 4 27.2
2020-Aug-11 05:10 225 0 gusting 3 27.2
2020-Aug-11 05:05 225 1 gusting 6 27.2
2020-Aug-11 05:00 202 0 gusting 3 27.2
2020-Aug-11 04:55 202 0 gusting 4 27.8
2020-Aug-11 04:50 225 0 gusting 6 27.8
2020-Aug-11 04:45 202 0 gusting 3 27.8
2020-Aug-11 04:40 247 0 gusting 4 27.8
2020-Aug-11 04:35 202 1 gusting 5 27.8
2020-Aug-11 04:30 225 1 gusting 6 27.8
2020-Aug-11 04:25 225 0 gusting 3 27.8
2020-Aug-11 04:20 225 1 gusting 5 27.8
2020-Aug-11 04:15 202 1 gusting 4 27.8
2020-Aug-11 04:10 225 0 gusting 3 27.8
2020-Aug-11 04:05 202 0 gusting 4 27.8
2020-Aug-11 04:00 180 1 gusting 5 27.8
2020-Aug-11 03:55 225 0 gusting 4 27.8
2020-Aug-11 03:50 247 0 gusting 3 27.8
2020-Aug-11 03:45 225 1 gusting 4 27.8
2020-Aug-11 03:40 202 0 gusting 5 27.8
2020-Aug-11 03:35 225 0 gusting 3 27.8
2020-Aug-11 03:30 202 0 gusting 4 28.3
2020-Aug-11 03:25 225 0 gusting 3 28.3
2020-Aug-11 03:20 225 0 gusting 4 28.3
2020-Aug-11 03:15 202 0 gusting 4 28.3
2020-Aug-11 03:10 180 0 gusting 4 28.3
2020-Aug-11 03:05 225 0 gusting 3 28.3
2020-Aug-11 03:00 225 1 gusting 5 28.3
2020-Aug-11 02:55 225 1 gusting 5 28.3
2020-Aug-11 02:50 157 1 gusting 5 28.9
2020-Aug-11 02:45 225 1 gusting 5 28.9
2020-Aug-11 02:40 225 0 gusting 5 28.9
2020-Aug-11 02:35 225 1 gusting 4 28.9
2020-Aug-11 02:30 180 0 gusting 4 28.9
2020-Aug-11 02:25 180 0 gusting 3 28.9
2020-Aug-11 02:20 180 1 gusting 5 29.4
2020-Aug-11 02:15 202 0 gusting 3 29.4
2020-Aug-11 02:10 135 0 gusting 5 29.4
2020-Aug-11 02:05 225 1 gusting 5 29.4
2020-Aug-11 02:00 225 0 gusting 3 29.4
2020-Aug-11 01:55 202 1 gusting 7 29.4
2020-Aug-11 01:50 225 1 gusting 6 29.4
2020-Aug-11 01:45 202 0 gusting 6 29.4
2020-Aug-11 01:40 225 0 gusting 3 29.4
2020-Aug-11 01:35 202 0 gusting 3 29.4
2020-Aug-11 01:30 225 1 gusting 3 29.4
2020-Aug-11 01:25 202 0 gusting 3 29.4
2020-Aug-11 01:20 225 0 gusting 4 29.4
2020-Aug-11 01:15 225 1 gusting 6 29.4
2020-Aug-11 01:10 202 0 gusting 6 29.4
2020-Aug-11 01:05 202 1 gusting 5 29.4
2020-Aug-11 01:00 225 0 gusting 5 29.4
2020-Aug-11 00:55 202 1 gusting 6 29.4
2020-Aug-11 00:50 202 1 gusting 4 30.0
2020-Aug-11 00:45 202 0 gusting 3 30.0
2020-Aug-11 00:40 202 1 gusting 4 30.0
2020-Aug-11 00:35 180 2 gusting 6 30.0
2020-Aug-11 00:30 180 2 gusting 6 30.0
2020-Aug-11 00:25 180 1 gusting 6 30.0
2020-Aug-11 00:20 180 2 gusting 6 30.0
2020-Aug-11 00:15 180 1 gusting 6 30.0
2020-Aug-11 00:10 180 1 gusting 6 30.0
2020-Aug-11 00:05 180 3 gusting 7 30.0
2020-Aug-11 00:00 180 3 gusting 7 30.0
2020-Aug-10 23:55 135 2 gusting 9 30.6
2020-Aug-10 23:50 157 3 gusting 8 30.6
2020-Aug-10 23:45 180 4 gusting 10 30.6
2020-Aug-10 23:40 157 1 gusting 6 31.1
2020-Aug-10 23:35 180 3 gusting 12 31.1
2020-Aug-10 23:30 180 4 gusting 12 31.1
2020-Aug-10 23:25 157 2 gusting 7 31.7
2020-Aug-10 23:20 157 3 gusting 6 32.2
2020-Aug-10 23:15 180 1 gusting 6 32.2
2020-Aug-10 23:10 202 1 gusting 6 32.2
2020-Aug-10 23:05 202 0 gusting 3 32.2
2020-Aug-10 23:00 225 0 gusting 5 32.2
2020-Aug-10 22:55 247 1 gusting 5 32.8
2020-Aug-10 22:50 247 1 gusting 5 32.8
2020-Aug-10 22:45 247 0 gusting 3 32.8
2020-Aug-10 22:40 247 1 gusting 6 33.3
2020-Aug-10 22:35 292 2 gusting 8 33.3
2020-Aug-10 22:30 225 1 gusting 4 33.3
2020-Aug-10 22:25 247 1 gusting 6 33.3
2020-Aug-10 22:20 292 2 gusting 5 33.3
2020-Aug-10 22:15 247 1 gusting 4 33.3
2020-Aug-10 22:10 292 2 gusting 8 33.3
2020-Aug-10 22:05 315 2 gusting 10 33.3
2020-Aug-10 22:00 225 2 gusting 6 33.3
2020-Aug-10 21:55 225 2 gusting 8 33.3
2020-Aug-10 21:50 225 1 gusting 5 33.3
2020-Aug-10 21:45 247 1 gusting 6 33.3
2020-Aug-10 21:40 225 2 gusting 8 33.3
2020-Aug-10 21:35 225 2 gusting 6 33.3
2020-Aug-10 21:30 225 1 gusting 4 33.3
2020-Aug-10 21:25 225 2 gusting 6 33.9
2020-Aug-10 21:20 202 1 gusting 4 33.9
2020-Aug-10 21:15 225 2 gusting 9 33.9
2020-Aug-10 21:10 292 1 gusting 6 33.9
2020-Aug-10 21:05 292 2 gusting 8 33.9
2020-Aug-10 21:00 292 1 gusting 6 33.9
2020-Aug-10 20:55 225 1 gusting 6 33.9
2020-Aug-10 20:50 247 1 gusting 6 33.9
2020-Aug-10 20:45 225 2 gusting 6 33.9
2020-Aug-10 20:40 225 1 gusting 5 33.9
2020-Aug-10 20:35 225 1 gusting 6 33.9
2020-Aug-10 20:30 225 1 gusting 4 33.9
2020-Aug-10 20:25 225 1 gusting 3 33.9
2020-Aug-10 20:20 247 1 gusting 5 33.9
2020-Aug-10 20:15 225 1 gusting 6 33.9
2020-Aug-10 20:10 225 2 gusting 8 33.3
2020-Aug-10 20:05 225 2 gusting 7 33.3
2020-Aug-10 20:00 247 1 gusting 5 33.3
2020-Aug-10 19:55 225 1 gusting 6 33.3
2020-Aug-10 19:50 247 2 gusting 6 33.9
2020-Aug-10 19:45 135 1 gusting 6 34.4
2020-Aug-10 19:40 180 2 gusting 8 34.4
2020-Aug-10 19:35 225 1 gusting 4 33.9
2020-Aug-10 19:30 225 1 gusting 8 33.9
2020-Aug-10 19:25 225 1 gusting 6 33.9
2020-Aug-10 19:20 225 1 gusting 5 33.9
2020-Aug-10 19:15 225 1 gusting 6 33.9
2020-Aug-10 19:10 225 2 gusting 9 33.9
2020-Aug-10 19:05 202 2 gusting 7 33.9
2020-Aug-10 19:00 292 2 gusting 6 33.3
2020-Aug-10 18:55 225 1 gusting 4 33.3
2020-Aug-10 18:50 225 2 gusting 6 32.8
2020-Aug-10 18:45 202 1 gusting 6 33.3
2020-Aug-10 18:40 247 1 gusting 6 32.8
2020-Aug-10 18:35 247 2 gusting 8 33.3
2020-Aug-10 18:30 225 3 gusting 10 33.3
2020-Aug-10 18:25 225 1 gusting 4 32.8
2020-Aug-10 18:20 225 1 gusting 6 33.3
2020-Aug-10 18:15 292 3 gusting 10 33.3
2020-Aug-10 18:10 225 2 gusting 9 33.3
2020-Aug-10 18:05 202 1 gusting 6 33.9
2020-Aug-10 18:00 225 1 gusting 6 33.9
2020-Aug-10 17:55 247 2 gusting 6 33.9
2020-Aug-10 17:50 202 2 gusting 7 33.9
2020-Aug-10 17:45 292 2 gusting 6 33.9
2020-Aug-10 17:40 225 2 gusting 9 33.9
2020-Aug-10 17:35 292 2 gusting 9 33.9
2020-Aug-10 17:30 247 3 gusting 10 33.9
2020-Aug-10 17:25 270 1 gusting 7 33.3
2020-Aug-10 17:20 292 2 gusting 9 33.3
2020-Aug-10 17:15 225 1 gusting 6 33.3
2020-Aug-10 17:10 315 1 gusting 4 32.8
2020-Aug-10 17:05 292 1 gusting 7 32.8
2020-Aug-10 17:00 225 2 gusting 7 32.8
2020-Aug-10 16:55 202 1 gusting 4 32.2
2020-Aug-10 16:50 225 1 gusting 6 32.8
2020-Aug-10 16:45 225 1 gusting 8 33.3
2020-Aug-10 16:40 225 1 gusting 7 33.9
2020-Aug-10 16:35 225 1 gusting 5 32.8
2020-Aug-10 16:30 225 1 gusting 6 33.3
2020-Aug-10 16:25 225 2 gusting 6 33.3
2020-Aug-10 16:20 225 1 gusting 4 33.3
2020-Aug-10 16:15 225 1 gusting 5 32.2
2020-Aug-10 16:10 225 1 gusting 6 32.8
2020-Aug-10 16:05 247 1 gusting 6 32.8
2020-Aug-10 16:00 292 2 gusting 6 32.2
2020-Aug-10 15:55 292 2 gusting 7 32.8
2020-Aug-10 15:50 202 1 gusting 6 33.9
2020-Aug-10 15:45 225 1 gusting 5 32.8
2020-Aug-10 15:40 225 1 gusting 6 32.2
2020-Aug-10 15:35 225 1 gusting 6 31.7
2020-Aug-10 15:30 225 1 gusting 3 32.2
2020-Aug-10 15:25 225 1 gusting 5 32.2
2020-Aug-10 15:20 225 1 gusting 6 31.7
2020-Aug-10 15:15 225 1 gusting 5 32.8
2020-Aug-10 15:10 225 1 gusting 3 32.2
2020-Aug-10 15:05 202 1 gusting 6 31.7
2020-Aug-10 15:00 225 0 gusting 3 32.2
2020-Aug-10 14:55 225 0 gusting 2 31.7
2020-Aug-10 14:50 247 1 gusting 5 30.6
2020-Aug-10 14:45 225 1 gusting 5 30.6
2020-Aug-10 14:40 225 1 gusting 3 30.6
2020-Aug-10 14:30 225 1 gusting 4 30.6
2020-Aug-10 14:25 315 2 gusting 6 30.0
2020-Aug-10 14:20 225 1 gusting 4 29.4
2020-Aug-10 14:15 247 1 gusting 6 30.0
2020-Aug-10 14:05 270 1 gusting 4 29.4
2020-Aug-10 14:00 247 1 gusting 3 29.4
2020-Aug-10 13:55 247 1 gusting 4 28.9
2020-Aug-10 13:50 225 1 gusting 4 29.4
2020-Aug-10 13:40 247 1 gusting 4 28.3
2020-Aug-10 13:35 225 1 gusting 3 28.3
2020-Aug-10 13:30 225 1 gusting 6 28.3
2020-Aug-10 13:25 247 1 gusting 5 27.8
2020-Aug-10 13:20 247 1 gusting 6 27.8
2020-Aug-10 13:15 225 0 gusting 6 27.2
2020-Aug-10 13:10 225 0 gusting 3 27.2
2020-Aug-10 13:05 247 1 gusting 5 27.2
2020-Aug-10 13:00 202 0 gusting 2 27.2
2020-Aug-10 12:55 202 0 gusting 3 26.7
2020-Aug-10 12:50 225 0 gusting 2 26.7
2020-Aug-10 12:45 202 0 gusting 3 26.7
2020-Aug-10 12:40 225 0 gusting 3 26.1
2020-Aug-10 12:35 225 0 gusting 3 26.1
2020-Aug-10 12:30 225 1 gusting 4 26.1
2020-Aug-10 12:25 225 0 gusting 3 25.6
2020-Aug-10 12:20 247 0 gusting 2 25.6
2020-Aug-10 12:15 225 0 gusting 3 25.0
2020-Aug-10 12:10 225 0 gusting 2 25.0
2020-Aug-10 12:05 225 0 gusting 2 24.4
2020-Aug-10 12:00 225 0 gusting 2 23.9
2020-Aug-10 11:55 225 0 gusting 4 23.9
2020-Aug-10 11:50 225 0 gusting 2 23.3
2020-Aug-10 11:45 225 0 gusting 4 23.3
2020-Aug-10 11:40 225 0 gusting 3 23.3
2020-Aug-10 11:35 225 1 gusting 5 23.3
2020-Aug-10 11:30 225 0 gusting 4 23.3
2020-Aug-10 11:25 225 0 gusting 3 23.3
2020-Aug-10 11:20 247 0 gusting 4 22.8
2020-Aug-10 11:15 225 0 gusting 3 22.8
2020-Aug-10 11:10 225 0 gusting 4 22.8
2020-Aug-10 11:05 202 0 gusting 2 22.8
2020-Aug-10 11:00 225 0 gusting 3 22.8
2020-Aug-10 10:55 225 0 gusting 1 22.8
2020-Aug-10 10:50 225 0 gusting 3 22.8
2020-Aug-10 10:45 225 0 gusting 2 22.8
2020-Aug-10 10:40 225 0 gusting 3 22.8
2020-Aug-10 10:35 247 0 gusting 3 22.8
2020-Aug-10 10:30 247 1 gusting 4 22.8
2020-Aug-10 10:25 225 0 gusting 5 22.8
2020-Aug-10 10:20 225 0 gusting 3 22.8
2020-Aug-10 10:15 202 0 gusting 3 22.8
2020-Aug-10 10:10 225 0 gusting 4 22.8
2020-Aug-10 10:05 202 1 gusting 4 22.8
2020-Aug-10 10:00 202 0 gusting 4 22.8
2020-Aug-10 09:55 135 0 gusting 3 22.8
2020-Aug-10 09:50 157 0 gusting 1 22.8
2020-Aug-10 09:45 225 0 gusting 3 22.8
2020-Aug-10 09:40 225 0 gusting 3 22.8
2020-Aug-10 09:35 225 0 gusting 3 23.3
2020-Aug-10 09:30 247 0 gusting 2 23.3
2020-Aug-10 09:25 157 0 gusting 4 23.3
2020-Aug-10 09:20 225 0 gusting 3 23.3
2020-Aug-10 09:15 202 0 gusting 3 23.3
2020-Aug-10 09:10 225 0 gusting 3 23.3
2020-Aug-10 09:05 202 0 gusting 4 23.3
2020-Aug-10 09:00 202 0 gusting 1 23.3
2020-Aug-10 08:55 225 0 gusting 1 23.3
2020-Aug-10 08:50 23.3
2020-Aug-10 08:45 23.3
2020-Aug-10 08:40 225 0 gusting 3 23.3
2020-Aug-10 08:35 225 0 gusting 2 23.3
2020-Aug-10 08:30 202 0 gusting 3 23.3
2020-Aug-10 08:25 225 0 gusting 3 23.3
2020-Aug-10 08:20 202 0 gusting 4 23.3
2020-Aug-10 08:15 225 0 gusting 3 23.3
2020-Aug-10 08:10 225 1 gusting 5 23.3
2020-Aug-10 08:05 202 0 gusting 3 23.3
2020-Aug-10 08:00 225 0 gusting 1 23.3
2020-Aug-10 07:55 225 0 gusting 5 23.3
2020-Aug-10 07:50 202 0 gusting 3 23.3
2020-Aug-10 07:45 202 0 gusting 4 23.3
2020-Aug-10 07:40 180 1 gusting 5 23.3
2020-Aug-10 07:35 202 1 gusting 3 23.9
2020-Aug-10 07:30 202 1 gusting 5 23.9
2020-Aug-10 07:25 202 0 gusting 5 23.9
2020-Aug-10 07:20 225 0 gusting 3 23.9
2020-Aug-10 07:15 202 0 gusting 3 23.9
2020-Aug-10 07:10 202 1 gusting 5 23.9
2020-Aug-10 07:05 225 0 gusting 4 23.9
2020-Aug-10 07:00 202 0 gusting 3 23.9
2020-Aug-10 06:55 202 0 gusting 4 23.9
2020-Aug-10 06:50 225 0 gusting 3 23.9
2020-Aug-10 06:45 225 0 gusting 3 23.9
2020-Aug-10 06:40 202 0 gusting 3 23.9
2020-Aug-10 06:35 202 0 gusting 4 23.9
2020-Aug-10 06:30 202 0 gusting 3 23.9
2020-Aug-10 06:25 225 1 gusting 4 23.9
2020-Aug-10 06:20 225 1 gusting 3 23.9
2020-Aug-10 06:15 225 1 gusting 4 23.9
2020-Aug-10 06:10 202 1 gusting 3 23.9
2020-Aug-10 06:05 225 0 gusting 4 23.9
2020-Aug-10 06:00 202 0 gusting 2 23.9
2020-Aug-10 05:55 225 1 gusting 5 24.4
2020-Aug-10 05:50 225 1 gusting 4 24.4
2020-Aug-10 05:45 225 0 gusting 3 24.4
2020-Aug-10 05:40 225 1 gusting 8 24.4
2020-Aug-10 05:35 225 1 gusting 4 24.4
2020-Aug-10 05:30 202 1 gusting 4 24.4
2020-Aug-10 05:25 225 0 gusting 4 24.4
2020-Aug-10 05:20 225 0 gusting 3 24.4
2020-Aug-10 05:15 225 1 gusting 5 24.4
2020-Aug-10 05:10 225 1 gusting 6 24.4
2020-Aug-10 05:05 225 1 gusting 8 24.4
2020-Aug-10 05:00 247 1 gusting 5 24.4
2020-Aug-10 04:55 225 1 gusting 5 24.4
2020-Aug-10 04:50 202 0 gusting 4 24.4
2020-Aug-10 04:45 225 0 gusting 3 24.4
2020-Aug-10 04:40 225 0 gusting 3 24.4
2020-Aug-10 04:35 225 1 gusting 5 25.0
2020-Aug-10 04:30 225 1 gusting 4 25.0
2020-Aug-10 04:25 225 0 gusting 4 25.0
2020-Aug-10 04:20 225 1 gusting 5 25.0
2020-Aug-10 04:15 225 1 gusting 4 25.0
2020-Aug-10 04:10 225 0 gusting 4 25.0
2020-Aug-10 04:05 225 0 gusting 3 25.0
2020-Aug-10 04:00 225 0 gusting 4 25.0
2020-Aug-10 03:55 202 0 gusting 3 25.0
2020-Aug-10 03:50 225 1 gusting 5 25.0
2020-Aug-10 03:45 202 0 gusting 3 25.0
2020-Aug-10 03:40 225 1 gusting 5 25.0
2020-Aug-10 03:35 202 1 gusting 4 25.0
2020-Aug-10 03:30 202 1 gusting 6 25.0
2020-Aug-10 03:25 202 1 gusting 6 25.0
2020-Aug-10 03:20 180 1 gusting 5 25.0
2020-Aug-10 03:15 180 1 gusting 4 25.0
2020-Aug-10 03:10 157 1 gusting 6 25.6
2020-Aug-10 03:05 180 1 gusting 4 25.6
2020-Aug-10 03:00 180 1 gusting 6 25.6
2020-Aug-10 02:55 225 1 gusting 5 25.6
2020-Aug-10 02:50 180 1 gusting 6 25.6
2020-Aug-10 02:45 180 0 gusting 2 25.6
2020-Aug-10 02:40 202 1 gusting 6 25.6
2020-Aug-10 02:35 157 1 gusting 6 25.6
2020-Aug-10 02:30 135 1 gusting 7 25.6
2020-Aug-10 02:25 180 0 gusting 4 25.6
2020-Aug-10 02:20 157 1 gusting 5 25.6
2020-Aug-10 02:15 180 1 gusting 6 26.1
2020-Aug-10 02:10 180 1 gusting 3 26.1
2020-Aug-10 02:05 180 2 gusting 6 26.1
2020-Aug-10 02:00 180 3 gusting 6 26.1
2020-Aug-10 01:55 180 3 gusting 6 26.1
2020-Aug-10 01:50 157 1 gusting 5 26.1
2020-Aug-10 01:45 202 2 gusting 6 26.1
2020-Aug-10 01:40 157 3 gusting 7 26.1
2020-Aug-10 01:35 157 2 gusting 8 26.1
2020-Aug-10 01:30 180 3 gusting 11 26.7
2020-Aug-10 01:25 180 2 gusting 7 26.7
2020-Aug-10 01:20 180 2 gusting 6 26.7
2020-Aug-10 01:15 157 2 gusting 8 26.7
2020-Aug-10 01:10 180 2 gusting 6 26.7
2020-Aug-10 01:05 180 2 gusting 5 26.7
2020-Aug-10 01:00 135 2 gusting 7 26.7
2020-Aug-10 00:55 180 2 gusting 6 26.7
2020-Aug-10 00:50 180 2 gusting 6 26.7
2020-Aug-10 00:45 180 2 gusting 7 26.7
2020-Aug-10 00:40 135 1 gusting 5 26.7
2020-Aug-10 00:35 180 3 gusting 6 26.7
2020-Aug-10 00:30 180 3 gusting 8 26.7
2020-Aug-10 00:25 180 2 gusting 6 27.2
2020-Aug-10 00:20 157 3 gusting 9 27.2
2020-Aug-10 00:15 157 2 gusting 7 27.2
2020-Aug-10 00:10 180 2 gusting 6 27.2
2020-Aug-10 00:05 157 4 gusting 10 27.2
2020-Aug-10 00:00 157 3 gusting 9 27.8
2020-Aug-09 23:55 180 2 gusting 6 27.8
2020-Aug-09 23:50 180 3 gusting 8 27.8
2020-Aug-09 23:45 157 4 gusting 9 27.8
2020-Aug-09 23:40 180 3 gusting 7 27.8
2020-Aug-09 23:35 180 3 gusting 8 27.8
2020-Aug-09 23:30 157 4 gusting 12 27.8
2020-Aug-09 23:25 180 5 gusting 11 28.3
2020-Aug-09 23:20 180 6 gusting 10 28.3
2020-Aug-09 23:15 180 5 gusting 13 28.3
2020-Aug-09 23:10 180 4 gusting 12 28.3
2020-Aug-09 23:05 180 5 gusting 13 28.3
2020-Aug-09 23:00 180 5 gusting 13 28.3
2020-Aug-09 22:55 180 5 gusting 13 28.9
2020-Aug-09 22:50 180 4 gusting 10 28.9
2020-Aug-09 22:45 180 5 gusting 12 28.9
2020-Aug-09 22:40 180 5 gusting 13 28.9
2020-Aug-09 22:35 180 5 gusting 13 28.9
2020-Aug-09 22:30 180 4 gusting 9 28.9
2020-Aug-09 22:25 135 4 gusting 13 28.9
2020-Aug-09 22:20 135 5 gusting 9 29.4
2020-Aug-09 22:15 135 2 gusting 10 29.4
2020-Aug-09 22:10 135 5 gusting 12 29.4
2020-Aug-09 22:05 135 3 gusting 11 29.4
2020-Aug-09 22:00 135 2 gusting 8 29.4
2020-Aug-09 21:55 135 6 gusting 14 29.4
2020-Aug-09 21:50 135 6 gusting 12 29.4
2020-Aug-09 21:45 135 5 gusting 11 29.4
2020-Aug-09 21:40 135 3 gusting 10 30.0
2020-Aug-09 21:35 157 3 gusting 10 30.6
2020-Aug-09 21:30 135 2 gusting 7 30.6
2020-Aug-09 21:25 180 5 gusting 10 30.0
2020-Aug-09 21:20 180 4 gusting 11 30.6
2020-Aug-09 21:15 157 3 gusting 8 30.6
2020-Aug-09 21:10 180 3 gusting 11 30.6
2020-Aug-09 21:05 180 3 gusting 11 31.1
2020-Aug-09 21:00 180 3 gusting 9 31.1
2020-Aug-09 20:55 180 2 gusting 12 31.1
2020-Aug-09 20:50 225 2 gusting 12 31.1
2020-Aug-09 20:45 180 3 gusting 9 31.7
2020-Aug-09 20:40 135 2 gusting 6 32.2
2020-Aug-09 20:35 225 1 gusting 4 31.7
2020-Aug-09 20:30 225 1 gusting 5 32.2
2020-Aug-09 20:25 202 2 gusting 6 32.8
2020-Aug-09 20:20 202 1 gusting 5 32.8
2020-Aug-09 20:15 225 1 gusting 6 32.8
2020-Aug-09 20:10 202 4 gusting 10 32.8
2020-Aug-09 20:05 247 2 gusting 6 32.8
2020-Aug-09 20:00 247 2 gusting 6 32.8
2020-Aug-09 19:55 225 1 gusting 7 32.8
2020-Aug-09 19:50 225 2 gusting 8 32.8
2020-Aug-09 19:45 180 2 gusting 7 32.8
2020-Aug-09 19:40 225 1 gusting 5 32.2
2020-Aug-09 19:35 225 2 gusting 7 32.8
2020-Aug-09 19:30 225 1 gusting 5 32.2
2020-Aug-09 19:25 225 1 gusting 6 32.2
2020-Aug-09 19:20 202 2 gusting 7 32.8
2020-Aug-09 19:15 225 2 gusting 5 32.8
2020-Aug-09 19:10 225 2 gusting 6 32.8
2020-Aug-09 19:05 225 2 gusting 9 32.8
2020-Aug-09 19:00 180 2 gusting 7 32.2
2020-Aug-09 18:55 225 1 gusting 6 32.2
2020-Aug-09 18:50 225 2 gusting 10 32.8
2020-Aug-09 18:45 225 3 gusting 9 32.8
2020-Aug-09 18:40 225 1 gusting 3 32.8
2020-Aug-09 18:35 225 1 gusting 4 32.8
2020-Aug-09 18:30 225 1 gusting 4 32.2
2020-Aug-09 18:25 225 1 gusting 6 31.7
2020-Aug-09 18:20 225 1 gusting 5 31.7
2020-Aug-09 18:15 225 1 gusting 5 32.2
2020-Aug-09 18:10 202 1 gusting 5 32.2
2020-Aug-09 18:05 225 1 gusting 5 32.2
2020-Aug-09 18:00 202 1 gusting 5 32.2
2020-Aug-09 17:55 247 0 gusting 6 32.2
2020-Aug-09 17:50 135 1 gusting 4 32.8
2020-Aug-09 17:45 180 1 gusting 5 32.2
2020-Aug-09 17:40 202 2 gusting 9 32.2
2020-Aug-09 17:35 202 2 gusting 9 32.2
2020-Aug-09 17:30 247 1 gusting 6 31.7
2020-Aug-09 17:25 292 1 gusting 6 31.7
2020-Aug-09 17:20 247 1 gusting 6 31.7
2020-Aug-09 17:15 225 1 gusting 4 31.7
2020-Aug-09 17:10 225 1 gusting 5 32.2
2020-Aug-09 17:05 180 3 gusting 7 33.3
2020-Aug-09 17:00 157 1 gusting 6 33.3
2020-Aug-09 16:55 225 2 gusting 7 32.8
2020-Aug-09 16:50 225 1 gusting 6 32.8
2020-Aug-09 16:45 225 3 gusting 7 32.2
2020-Aug-09 16:40 225 1 gusting 6 32.2
2020-Aug-09 16:35 225 1 gusting 8 32.2
2020-Aug-09 16:30 247 1 gusting 5 32.2
2020-Aug-09 16:25 315 2 gusting 6 31.7
2020-Aug-09 16:20 180 1 gusting 7 32.2
2020-Aug-09 16:15 225 1 gusting 3 31.7
2020-Aug-09 16:10 180 1 gusting 8 31.7
2020-Aug-09 16:05 225 1 gusting 5 31.1
2020-Aug-09 16:00 202 1 gusting 6 31.1
2020-Aug-09 15:55 247 1 gusting 4 30.6
2020-Aug-09 15:50 202 1 gusting 5 31.1
2020-Aug-09 15:45 225 1 gusting 5 31.1
2020-Aug-09 15:40 225 1 gusting 6 30.6
2020-Aug-09 15:35 225 1 gusting 5 31.1
2020-Aug-09 15:30 225 1 gusting 6 31.7
2020-Aug-09 15:25 225 1 gusting 5 31.1
2020-Aug-09 15:20 247 1 gusting 6 30.0
2020-Aug-09 15:15 202 2 gusting 6 31.1
2020-Aug-09 15:10 225 1 gusting 6 31.1
2020-Aug-09 15:05 157 2 gusting 7 31.1
2020-Aug-09 15:00 157 1 gusting 5 31.1
2020-Aug-09 14:55 225 1 gusting 3 29.4
2020-Aug-09 14:50 225 1 gusting 4 30.0
2020-Aug-09 14:45 202 1 gusting 6 29.4
2020-Aug-09 14:40 225 1 gusting 4 29.4
2020-Aug-09 14:35 225 1 gusting 4 29.4
2020-Aug-09 14:30 225 1 gusting 4 30.0
2020-Aug-09 14:25 135 2 gusting 7 29.4
2020-Aug-09 14:20 225 1 gusting 4 28.3
2020-Aug-09 14:15 225 0 gusting 4 27.8
2020-Aug-09 14:10 247 1 gusting 4 27.8
2020-Aug-09 14:05 202 1 gusting 4 27.2
2020-Aug-09 14:00 225 1 gusting 3 27.2
2020-Aug-09 13:55 225 0 gusting 2 27.2
2020-Aug-09 13:50 225 1 gusting 3 27.2
2020-Aug-09 13:45 157 2 gusting 7 27.2
2020-Aug-09 13:40 202 1 gusting 5 26.7
2020-Aug-09 13:35 247 0 gusting 6 26.1
2020-Aug-09 13:30 202 0 gusting 4 26.7
2020-Aug-09 13:25 225 0 gusting 3 26.1
2020-Aug-09 13:20 225 1 gusting 5 25.6
2020-Aug-09 13:15 225 0 gusting 3 25.6
2020-Aug-09 13:10 225 1 gusting 4 25.6
2020-Aug-09 13:05 202 1 gusting 3 25.0
2020-Aug-09 13:00 247 0 gusting 3 25.0